{"data":{"norad_id":87557,"epoch":"2026-05-22T09:15:39.850560Z","epoch_age_seconds":300367,"freshness":"STALE","line1":"1 87557U          26142.38587790  .00003400  00000+0  73387-2 0  9990","line2":"2 87557 101.8095  24.5502 0083923  24.9677 335.5463 13.29202060586368","mean_motion":13.2920206,"eccentricity":0.0083923,"inclination_deg":101.8095,"raan_deg":24.5502,"arg_perigee_deg":24.9677,"mean_anomaly_deg":335.5463,"bstar":0.0073387,"rev_number":58636,"period_min":108.33567320833,"perigee_km":1086.5979985081,"apogee_km":1212.950981705,"semimajor_km":7527.9114901065,"source":"CELESTRAK","updated_at":"2026-05-25T13:38:11.672551Z"}}